Terug naar catalogus

HULIANWANG DIGUI-54

ActiefCommunicatieLEO
NORAD 65111·PAYLOAD·🇨🇳 China

Gelanceerd Aug 4, 2025 vanaf Wenchang Space Launch Site

Loading…

Volgende Passages (komende 24 uur)

TLE

VersSource: Space-Track

Epoch: Sep 14, 2026, 20:48 UTC

1 65111U 25168F   26257.86705614 -.00000083  00000-0  88784-4 0  9996
2 65111  50.0011   3.6699 0009986   4.6506 355.4457 13.29330541 54620

Volg HULIANWANG DIGUI-54 in realtime met AllMySat

Download on the App Store